Flag for U.S.A. Weather past 2 weeks in Sterling Heights, Michigan, U.S.A.

Now
6 °F

Clear.


Feels Like: 6 °F
Forecast: 4 / 16 °F
Wind: 2 mph from Southwest

Location: Selfridge Air National Guard Base

Current Time: Feb 27, 2015 at 9:03:59 PM

Latest Report: Feb 27, 2015 at 7:55 PM


Visibility: 12 mi

Pressure: 30.64 "Hg

Humidity: 73%

Dew point: 0 °F

Location of Sterling HeightsLocation

Historic Weather in Sterling Heights — Graph

°F

Sterling Heights temperature yesterday

Maximum temperature yesterday: 13 °F (at 1:55 PM)
Minimum temperature yesterday: 4 °F (at 11:58 PM)
Average temperature yesterday: 8 °F

Past Weeks' High & Low Weather Summary

 TemperatureHumidityPressure
High28 °F (Feb 22, 11:55 AM)100% (Feb 14, 8:55 AM)30.69 "Hg (Feb 14, 8:55 AM)
Low-16 °F (Feb 16, 5:58 AM)38% (Feb 19, 2:55 PM)29.61 "Hg (Feb 24, 11:58 PM)
Average8 °F68%30.15 "Hg
* Reported Feb 12 7:55 PM — Feb 27 7:55 PM, Sterling Heights, Weather by CustomWeather, © 2015

Note: Actual official high and low records may vary slightly from our data, if they occured in-between our weather recording intervals... More about our weather records

Advertising

Sterling Heights weather history for previous 24 hours

 ConditionsComfort  
Time TempWeatherWind HumidityBarometerVisibility
7:55 PM
Fri, Feb 27
6 °FClear.2 mph73%30.64 "Hg12 mi
6:55 PM6 °FClear.6 mph70%30.63 "Hg12 mi
5:55 PM12 °FPassing clouds.8 mph65%30.61 "Hg10 mi
4:55 PM14 °FPassing clouds.9 mph64%30.60 "Hg10 mi
3:55 PM15 °FPassing clouds.12 mph58%30.60 "Hg10 mi
2:55 PM15 °FPassing clouds.9 mph61%30.59 "Hg10 mi
1:55 PM13 °FPassing clouds.9 mph64%30.58 "Hg12 mi
12:55 PM12 °FPassing clouds.7 mph66%30.60 "Hg10 mi
11:55 AM11 °FPassing clouds.7 mph66%30.60 "Hg10 mi
10:55 AM10 °FPassing clouds.5 mph63%30.59 "Hg10 mi
9:55 AM5 °FPassing clouds.3 mph70%30.58 "Hg10 mi
8:55 AM0 °FPassing clouds.3 mph84%30.57 "Hg10 mi
7:55 AM-4 °FPassing clouds.No wind81%30.54 "Hg10 mi
6:58 AM-6 °FClear.5 mph82%30.51 "Hg10 mi
5:58 AM-5 °FClear.2 mph84%30.47 "Hg10 mi
4:58 AM-5 °FClear.1 mph81%30.46 "Hg10 mi
3:58 AM-1 °FClear.5 mph81%30.43 "Hg10 mi
2:58 AM-2 °FClear.1 mph81%30.41 "Hg10 mi
1:58 AM0 °FPassing clouds.5 mph78%30.40 "Hg10 mi
12:58 AM2 °FClear.5 mph74%30.39 "Hg10 mi
11:58 PM
Thu, Feb 26
4 °FClear.5 mph69%30.38 "Hg10 mi
10:58 PM4 °FClear.6 mph68%30.37 "Hg10 mi
9:58 PM5 °FClear.7 mph66%30.35 "Hg10 mi
Weather by CustomWeather, © 2015

See weather overviewHow to use our weather pages